Hourly Data Report for May 22, 2003

SHERBROOKE A
QUEBEC

45°26'00.000" N
71°41'00.000" W
241.40 m
7028124
71610
YSC

Download Data

Hourly Data (May 2003)
Hourly Data Report for May 22, 2003
TIME
LST
Temp Definition
°C
Dew Point Definition
°C
Rel Hum Definition
%
Precip. Amount Definition
mm

Wind Dir Definition
10's deg

Wind Spd Definition
km/h
Visibility Definition
km
Stn Press Definition
kPa
Hmdx Definition


Wind Chill Definition


Weather Definition


00:00 5.5 LegendMM LegendMM   4 11 15.0 99.79      
01:00 3.0 LegendMM LegendMM   7 6 15.0 99.83      
02:00 4.0 LegendMM LegendMM   4 13 15.0 99.86      
03:00 3.4 LegendMM LegendMM   3 13 15.0 99.87      
04:00 1.1 LegendMM LegendMM   7 7 15.0 99.89      
05:00 3.2 LegendMM LegendMM   4 7 15.0 99.97      
06:00 5.3 LegendMM LegendMM   4 19 15.0 100.01      
07:00 7.2 -1.0 56   5 11 24.1 100.02     Mainly Clear
08:00 10.7 -2.3 40   7 17 24.1 100.01     Mainly Clear
09:00 12.5 -1.7 37   7 20 24.1 99.96     Mainly Clear
10:00 13.5 -0.1 39   1 19 24.1 99.92     Mainly Clear
11:00 15.0 -0.5 35   36 15 24.1 99.86     Mainly Clear
12:00 17.1 0.1 32   5 15 24.1 99.78     Mainly Clear
13:00 18.4 2.0 33   4 11 24.1 99.74     Mainly Clear
14:00 18.9 1.1 30   1 17 24.1 99.67     Mainly Clear
15:00 19.4 0.5 28   3 11 24.1 99.63     Mainly Clear
16:00 19.5 1.1 29   2 22 24.1 99.60     Mostly Cloudy
17:00 17.8 1.6 34   5 19 15.0 99.61      
18:00 15.7 1.9 39   6 22 15.0 99.68      
19:00 13.5 3.2 50   8 11 15.0 99.75      
20:00 11.5 3.1 56   7 15 15.0 99.77      
21:00 10.1 2.9 61   5 11 15.0 99.78      
22:00 9.2 2.8 64   5 9 15.0 99.78      
23:00 7.9 2.9 71   5 7 15.0 99.76      

Notes on Data Quality.

Legend

  • E = Estimated
  • M = Missing
  • NA = Not Available*
  • [empty] = Indicates an unobserved value
Date modified: